PD3EM Weather Reports


time (UTC)temp
C
wind
direction
speed
KPH
gust
KPH
rain 1hr
cm
rain 24hr
cm
rain mn
cm
humidity
%
barometer
mb
20260507084705 14 334 6.4 8.0 0.00 0.00 0.00 73 1017.8
20260507083704 14 351 9.7 9.7 0.00 0.00 0.00 74 1017.8
20260507082742 13 301 3.2 6.4 0.00 0.00 0.00 74 1017.9
20260507081702 13 335 9.7 9.7 0.00 0.00 0.00 75 1017.8
20260507080700 13 338 6.4 6.4 0.00 0.00 0.00 77 1017.7
20260507075659 12 309 1.6 4.8 0.00 0.00 0.00 77 1017.7
20260507074658 12 327 9.7 9.7 0.00 0.00 0.00 79 1017.7
20260507073656 12 337 3.2 4.8 0.00 0.00 0.00 79 1017.5
20260507072655 11 344 6.4 8.0 0.00 0.00 0.00 81 1017.6
20260507071654 11 349 1.6 4.8 0.00 0.00 0.00 81 1017.5
20260507070653 11 0 3.2 3.2 0.00 0.00 0.00 82 1017.5
20260507065712 11 0.0 0.0 0.00 0.00 0.00 85 1017.7
20260507064650 10 0.0 3.2 0.00 0.00 0.00 86 1017.4
20260507063650 10 0.0 3.2 0.00 0.00 0.00 87 1017.2
20260507062728 10 0.0 1.6 0.00 0.00 0.00 88 1017.2
20260507061727 9 329 3.2 3.2 0.00 0.00 0.00 89 1017.1
20260507060646 8 299 3.2 9.7 0.00 0.00 0.00 90 1017.3
20260507055824 8 34 3.2 4.8 0.00 0.00 0.00 91 1017.0
20260507054643 7 293 4.8 6.4 0.00 0.00 0.00 91 1016.8
20260507053642 7 265 3.2 6.4 0.00 0.00 0.00 91 1016.9
20260507052641 7 345 4.8 4.8 0.00 0.00 0.00 92 1016.7
20260507051640 7 277 1.6 6.4 0.00 0.00 0.00 92 1016.7
20260507050638 6 21 6.4 8.0 0.00 0.00 0.00 92 1016.5
20260507045637 6 0.0 3.2 0.00 0.00 0.00 91 1016.4
20260507044636 6 348 3.2 3.2 0.00 0.00 0.00 91 1016.3
20260507043635 6 333 3.2 3.2 0.00 0.00 0.00 91 1016.0
20260507042634 6 0.0 3.2 0.00 0.00 0.00 91 1016.1
20260507041713 6 22 4.8 6.4 0.00 0.00 0.00 90 1015.9
20260507040631 6 354 1.6 4.8 0.00 0.00 0.00 90 1016.0
20260507035630 6 102 3.2 3.2 0.00 0.00 0.00 89 1016.1
20260507034629 6 0.0 4.8 0.00 0.00 0.00 89 1016.0
20260507033628 6 162 3.2 4.8 0.00 0.00 0.00 88 1015.8
20260507032627 6 282 6.4 6.4 0.00 0.00 0.00 88 1015.7
20260507031625 6 343 3.2 4.8 0.00 0.00 0.00 87 1015.8
20260507030624 7 175 3.2 4.8 0.00 0.00 0.00 86 1015.9
20260507025703 7 301 3.2 6.4 0.00 0.00 0.00 86 1015.6
20260507024622 7 331 6.4 6.4 0.00 0.00 0.00 86 1015.6
20260507023700 7 0.0 4.8 0.00 0.00 0.00 85 1015.6
20260507022619 7 356 4.8 9.7 0.00 0.00 0.00 86 1015.5
20260507021618 7 72 4.8 4.8 0.00 0.00 0.00 86 1015.2
20260507020617 7 29 3.2 4.8 0.00 0.00 0.00 86 1015.3
20260507015615 8 279 6.4 6.4 0.00 0.00 0.00 86 1015.1
20260507014614 8 0.0 3.2 0.00 0.00 0.00 86 1015.3
20260507013653 8 102 4.8 6.4 0.00 0.00 0.00 85 1015.2
20260507012612 8 170 6.4 6.4 0.00 0.00 0.00 85 1015.1
20260507011611 8 0.0 1.6 0.00 0.00 0.00 84 1015.1
20260507010609 8 0.0 0.0 0.00 0.00 0.00 84 1014.9
20260507005608 8 0.0 3.2 0.00 0.00 0.00 84 1014.9
20260507004607 8 357 3.2 3.2 0.00 0.00 0.00 84 1015.0
20260507003606 8 0.0 0.0 0.00 0.00 0.00 83 1015.0
20260507002604 9 0.0 0.0 0.00 0.00 0.00 83 1014.9
20260507001603 9 0.0 0.0 0.00 0.00 0.00 83 1014.9
20260507000602 9 0.0 0.0 0.00 0.00 0.00 82 1014.8
20260506235601 9 0.0 0.0 0.00 0.00 0.00 82 1014.7
20260506234600 10 290 3.2 3.2 0.00 0.00 0.00 82 1014.7
20260506233639 10 330 3.2 3.2 0.00 0.00 0.00 80 1014.4
20260506232557 10 303 1.6 3.2 0.00 0.00 0.00 79 1014.5
20260506231556 10 297 1.6 3.2 0.00 0.00 0.00 79 1014.3
20260506230555 10 336 3.2 3.2 0.00 0.00 0.00 78 1014.5
20260506225633 10 0.0 0.0 0.00 0.00 0.00 78 1014.4
20260506224552 10 0.0 1.6 0.00 0.00 0.00 77 1014.3
20260506223631 10 330 3.2 6.4 0.00 0.00 0.00 77 1014.5
20260506222550 10 0.0 3.2 0.00 0.00 0.00 77 1014.4
20260506221548 11 0.0 1.6 0.00 0.00 0.00 78 1014.3
20260506220547 11 11 3.2 4.8 0.00 0.00 0.00 79 1014.2
20260506215546 11 0.0 3.2 0.00 0.00 0.00 80 1014.2
20260506214625 11 337 4.8 6.4 0.00 0.00 0.00 80 1014.0
20260506213545 11 338 1.6 1.6 0.00 0.00 0.00 80 1014.0
20260506212542 11 0.0 4.8 0.00 0.00 0.00 80 1014.1
20260506211541 11 0.0 1.6 0.00 0.00 0.00 79 1013.7
20260506210540 11 7 3.2 4.8 0.00 0.00 0.00 78 1013.8
20260506205539 11 0.0 3.2 0.00 0.00 0.00 77 1013.8
20260506204617 11 355 3.2 3.2 0.00 0.00 0.00 76 1013.6
20260506203616 11 334 3.2 3.2 0.00 0.00 0.00 75 1013.9
20260506202535 11 351 1.6 3.2 0.00 0.00 0.00 75 1013.6
20260506201534 11 0.0 1.6 0.00 0.00 0.00 75 1013.6
20260506200533 11 324 3.2 3.2 0.00 0.00 0.00 74 1013.5
20260506195531 11 316 1.6 3.2 0.00 0.00 0.00 72 1013.5
20260506194530 12 0.0 0.0 0.00 0.00 0.00 70 1013.6
20260506193529 12 322 3.2 3.2 0.00 0.00 0.00 70 1013.4
20260506192528 12 0.0 1.6 0.00 0.00 0.00 71 1013.3
20260506191527 12 110 3.2 3.2 0.00 0.00 0.00 71 1013.2
20260506190525 12 0.0 0.0 0.00 0.00 0.00 70 1013.0
20260506185604 12 0.0 0.0 0.00 0.00 0.00 70 1013.0
20260506184523 12 0.0 0.0 0.00 0.00 0.00 70 1012.9
20260506183521 12 0.0 0.0 0.00 0.00 0.00 70 1012.7
20260506182600 12 0.0 0.0 0.00 0.00 0.00 70 1012.4
20260506181519 12 0.0 1.6 0.00 0.00 0.00 69 1012.3
20260506180558 12 0.0 0.0 0.00 0.00 0.00 68 1012.2
20260506175516 12 0.0 0.0 0.00 0.00 0.00 68 1012.3
20260506174515 12 127 4.8 4.8 0.00 0.00 0.00 68 1012.2
20260506173554 12 198 1.6 4.8 0.00 0.00 0.00 67 1012.0
20260506172513 13 0.0 0.0 0.00 0.00 0.00 67 1011.9
20260506171511 13 143 1.6 1.6 0.00 0.00 0.00 67 1012.0
20260506170510 13 0.0 0.0 0.00 0.00 0.00 66 1011.8
20260506165549 13 85 4.8 6.4 0.00 0.00 0.00 66 1011.9
20260506164508 13 0.0 1.6 0.00 0.00 0.00 65 1011.9
20260506163507 13 0.0 1.6 0.00 0.00 0.00 65 1011.9
20260506162505 13 151 3.2 4.8 0.00 0.00 0.00 65 1011.9
20260506161544 13 101 3.2 3.2 0.00 0.00 0.00 64 1011.9
20260506160503 13 106 6.4 9.7 0.00 0.00 0.00 64 1011.7
20260506155502 13 17 4.8 6.4 0.00 0.00 0.00 63 1011.9
20260506154500 13 324 3.2 3.2 0.00 0.00 0.00 63 1011.7
20260506153459 13 0.0 1.6 0.00 0.00 0.00 63 1011.7
20260506152458 13 0.0 1.6 0.00 0.00 0.00 64 1011.7
20260506151457 13 0.0 1.6 0.00 0.00 0.00 64 1011.7
20260506150455 13 307 1.6 1.6 0.00 0.00 0.00 63 1011.8
20260506145454 13 0.0 1.6 0.00 0.00 0.00 63 1011.6
20260506144453 13 0.0 3.2 0.00 0.00 0.00 63 1011.9
20260506143451 13 44 3.2 4.8 0.00 0.00 0.00 63 1011.5
20260506142450 13 116 6.4 6.4 0.00 0.00 0.00 62 1011.8
20260506141449 13 0.0 6.4 0.00 0.00 0.00 60 1011.7
20260506140448 13 176 3.2 4.8 0.00 0.00 0.00 59 1011.7
20260506135447 14 9 3.2 6.4 0.00 0.00 0.00 59 1011.6
20260506134526 14 0 1.6 3.2 0.00 0.00 0.00 60 1011.5
20260506133445 14 305 3.2 4.8 0.00 0.00 0.00 58 1011.4
20260506132443 15 82 6.4 12.9 0.00 0.00 0.00 57 1011.5
20260506131442 15 329 4.8 6.4 0.00 0.00 0.00 59 1011.2
20260506130441 14 77 1.6 3.2 0.00 0.00 0.00 63 1011.2
20260506125439 14 336 6.4 6.4 0.00 0.00 0.00 63 1011.1
20260506124458 13 71 3.2 6.4 0.00 0.00 0.00 64 1011.2
20260506123517 13 339 6.4 6.4 0.00 0.00 0.00 69 1011.1
20260506122516 13 323 6.4 9.7 0.00 0.00 0.00 69 1010.8
20260506121434 13 346 3.2 4.8 0.00 0.00 0.00 71 1010.9
20260506120433 13 334 8.0 8.0 0.00 0.00 0.00 71 1010.9
20260506115432 13 344 1.6 8.0 0.00 0.00 0.00 73 1010.9
20260506114431 13 326 6.4 8.0 0.00 0.00 0.00 73 1010.9
20260506113429 13 351 6.4 9.7 0.00 0.00 0.00 73 1010.9
20260506112428 13 354 9.7 11.3 0.00 0.00 0.00 73 1010.9
20260506111427 13 297 3.2 4.8 0.00 0.00 0.00 71 1010.8
20260506110426 13 308 9.7 9.7 0.00 0.00 0.00 69 1011.0
20260506105425 14 343 9.7 14.5 0.00 0.00 0.00 67 1010.9
20260506104424 15 23 4.8 6.4 0.00 0.00 0.00 57 1010.7
20260506103422 15 277 3.2 4.8 0.00 0.00 0.00 58 1010.6
20260506102421 15 314 6.4 6.4 0.00 0.00 0.00 61 1010.5
20260506101420 15 349 4.8 4.8 0.00 0.00 0.00 60 1010.8
20260506100419 15 353 1.6 3.2 0.00 0.00 0.00 62 1010.5
20260506095417 16 0.0 9.7 0.00 0.00 0.00 61 1010.6
20260506094456 15 25 3.2 6.4 0.00 0.00 0.00 65 1010.5
20260506093415 15 168 1.6 6.4 0.00 0.00 0.00 63 1010.6
20260506092414 15 0.0 6.4 0.00 0.00 0.00 65 1010.5
20260506091413 15 338 3.2 3.2 0.00 0.00 0.00 65 1010.2
20260506090411 15 106 6.4 9.7 0.00 0.00 0.00 67 1010.3
20260506085410 15 25 3.2 3.2 0.00 0.00 0.00 66 1010.4